CICERO 6

Last updated on Wed Jun 12 2024 00:03:40 GMT+0000 (Coordinated Universal Time)

1 42793U 17036AE 24163.23684834 .08361895 23324-5 83951-3 0 9994 2 42793 97.0251 202.2241 0010052 242.5736 117.4541 16.38007211388901
UTC large
Height (km)
Speed (km/s)
/
Latitude / Longitude
Inclination (degrees)
Orbital Period (minutes)
Azimuth
Elevation
Range (km)
Doppler Factor

Next 0 passes for location: London (51.5072 / 0.1276)

Sorry there are no passes over London.